User: anonymous   Login
Location: Theodore Roosevelt National Park
(46.9990°N, 103.4631°W)
Time: 01:30:09
(UTC-06:00)
Language:

Cosmos 2219 Rocket - Orbit

View from above orbital plane
View from above orbital plane
View from above satellite
View from above satellite

Ground track
Ground track

The orbit data is extracted from the following two-line orbital elements,

1 22220U 92076B   17230.62356372 -.00000119 +00000-0 -35551-4 0  9995
2 22220 071.0000 287.8254 0012949 188.4936 282.3181 14.16419784279286
Epoch (UTC): 18 August 2017 14:57:55
Eccentricity: 0.0012949
inclination: 71.0000°
perigee height: 828 km
apogee height: 847 km
right ascension of ascending node: 287.8254°
argument of perigee: 188.4936°
revolutions per day: 14.16419784
mean anomaly at epoch: 282.3181°
orbit number at epoch: 27928

The dashed part of the orbit path shows where the satellite is in the earth's shadow,  

DLR